TimeCDT,TemperatureF,Dew PointF,Humidity,Sea Level PressureIn,VisibilityMPH,Wind Direction,Wind SpeedMPH,Gust SpeedMPH,PrecipitationIn,Events,Conditions,WindDirDegrees,DateUTC
12:15 AM,71.6,71.6,100,29.89,10.0,South,8.1,-,N/A,,Clear,180,2013-09-02 05:15:00
12:35 AM,71.6,71.6,100,29.89,10.0,South,5.8,-,N/A,,Unknown,180,2013-09-02 05:35:00
12:55 AM,71.6,69.8,94,29.88,10.0,SSW,5.8,-,N/A,,Partly Cloudy,200,2013-09-02 05:55:00
1:15 AM,71.6,69.8,94,29.87,10.0,SSW,5.8,-,N/A,,Clear,210,2013-09-02 06:15:00
1:35 AM,69.8,69.8,100,29.87,10.0,SSW,4.6,-,N/A,,Clear,210,2013-09-02 06:35:00
1:55 AM,69.8,69.8,100,29.86,10.0,SSW,5.8,-,N/A,,Clear,210,2013-09-02 06:55:00
2:15 AM,69.8,68.0,94,29.86,10.0,SW,5.8,-,N/A,,Clear,230,2013-09-02 07:15:00
2:35 AM,69.8,68.0,94,29.86,10.0,SW,5.8,-,N/A,,Clear,220,2013-09-02 07:35:00
2:55 AM,69.8,68.0,94,29.86,10.0,SW,4.6,-,N/A,,Clear,230,2013-09-02 07:55:00
3:15 AM,69.8,68.0,94,29.87,10.0,SSW,5.8,-,N/A,,Clear,200,2013-09-02 08:15:00
3:35 AM,69.8,68.0,94,29.87,10.0,South,6.9,-,N/A,,Unknown,190,2013-09-02 08:35:00
3:55 AM,69.8,68.0,94,29.87,10.0,SSW,6.9,-,N/A,,Unknown,200,2013-09-02 08:55:00
4:15 AM,69.8,68.0,94,29.86,10.0,SSW,6.9,-,N/A,,Unknown,200,2013-09-02 09:15:00
4:35 AM,71.6,68.0,88,29.87,10.0,SSW,4.6,-,N/A,,Unknown,200,2013-09-02 09:35:00
4:55 AM,71.6,68.0,88,29.87,10.0,SSW,6.9,-,N/A,,Unknown,210,2013-09-02 09:55:00
5:15 AM,71.6,68.0,88,29.87,10.0,South,6.9,-,N/A,,Mostly Cloudy,190,2013-09-02 10:15:00
5:35 AM,71.6,68.0,88,29.87,10.0,SSW,5.8,-,N/A,,Mostly Cloudy,200,2013-09-02 10:35:00
5:55 AM,69.8,68.0,94,29.87,10.0,SSW,5.8,-,N/A,,Mostly Cloudy,210,2013-09-02 10:55:00
6:15 AM,69.8,68.0,94,29.88,10.0,SSW,4.6,-,N/A,,Mostly Cloudy,210,2013-09-02 11:15:00
6:35 AM,71.6,68.0,88,29.89,10.0,SSW,4.6,-,N/A,,Overcast,200,2013-09-02 11:35:00
6:55 AM,69.8,68.0,94,29.89,9.0,SSW,4.6,-,N/A,,Overcast,200,2013-09-02 11:55:00
7:15 AM,71.6,68.0,88,29.89,10.0,SW,3.5,-,N/A,,Scattered Clouds,230,2013-09-02 12:15:00
7:35 AM,71.6,69.8,94,29.89,10.0,SW,5.8,-,N/A,,Clear,220,2013-09-02 12:35:00
7:55 AM,73.4,71.6,94,29.90,10.0,SW,5.8,-,N/A,,Clear,220,2013-09-02 12:55:00
8:15 AM,75.2,71.6,89,29.90,10.0,WSW,4.6,-,N/A,,Clear,250,2013-09-02 13:15:00
8:35 AM,75.2,71.6,89,29.90,10.0,Calm,Calm,-,N/A,,Clear,0,2013-09-02 13:35:00
8:55 AM,75.2,71.6,89,29.91,10.0,WSW,4.6,-,N/A,,Unknown,240,2013-09-02 13:55:00
9:15 AM,75.2,71.6,89,29.92,10.0,SW,3.5,-,N/A,,Unknown,220,2013-09-02 14:15:00
9:35 AM,77.0,71.6,83,29.92,10.0,Calm,Calm,-,N/A,,Clear,0,2013-09-02 14:35:00
9:55 AM,78.8,71.6,78,29.92,10.0,Calm,Calm,-,N/A,,Scattered Clouds,0,2013-09-02 14:55:00
10:15 AM,80.6,73.4,79,29.93,10.0,Calm,Calm,-,N/A,,Partly Cloudy,0,2013-09-02 15:15:00
10:35 AM,80.6,73.4,79,29.93,10.0,SSE,3.5,-,N/A,,Clear,150,2013-09-02 15:35:00
10:55 AM,82.4,73.4,74,29.93,10.0,SSE,3.5,-,N/A,,Scattered Clouds,160,2013-09-02 15:55:00
11:15 AM,82.4,73.4,74,29.93,10.0,Calm,Calm,-,N/A,,Partly Cloudy,0,2013-09-02 16:15:00
11:35 AM,82.4,73.4,74,29.93,10.0,West,3.5,-,N/A,,Scattered Clouds,280,2013-09-02 16:35:00
11:55 AM,84.2,73.4,70,29.93,10.0,West,5.8,-,N/A,,Partly Cloudy,260,2013-09-02 16:55:00
12:15 PM,84.2,71.6,66,29.92,10.0,WNW,4.6,-,N/A,,Clear,290,2013-09-02 17:15:00
12:35 PM,86.0,71.6,62,29.92,10.0,Calm,Calm,-,N/A,,Partly Cloudy,0,2013-09-02 17:35:00
12:55 PM,86.0,73.4,66,29.91,10.0,Calm,Calm,-,N/A,,Scattered Clouds,0,2013-09-02 17:55:00
1:15 PM,86.0,71.6,62,29.90,10.0,Calm,Calm,-,N/A,,Mostly Cloudy,0,2013-09-02 18:15:00
1:35 PM,86.0,71.6,62,29.90,10.0,Calm,Calm,-,N/A,,Partly Cloudy,0,2013-09-02 18:35:00
1:55 PM,87.8,71.6,58,29.89,10.0,West,3.5,-,N/A,,Clear,270,2013-09-02 18:55:00
2:15 PM,86.0,71.6,62,29.88,10.0,Calm,Calm,-,N/A,,Partly Cloudy,0,2013-09-02 19:15:00
2:35 PM,87.8,71.6,58,29.88,10.0,West,4.6,-,N/A,,Mostly Cloudy,260,2013-09-02 19:35:00
2:55 PM,87.8,71.6,58,29.87,10.0,WNW,4.6,-,N/A,,Mostly Cloudy,290,2013-09-02 19:55:00
3:15 PM,89.6,71.6,55,29.87,10.0,WNW,10.4,-,N/A,,Partly Cloudy,300,2013-09-02 20:15:00
3:35 PM,84.2,73.4,70,29.87,10.0,North,12.7,18.4,N/A,,Clear,10,2013-09-02 20:35:00
3:55 PM,84.2,73.4,70,29.86,10.0,North,15.0,-,N/A,,Scattered Clouds,360,2013-09-02 20:55:00
4:15 PM,84.2,71.6,66,29.86,10.0,North,10.4,-,N/A,,Partly Cloudy,360,2013-09-02 21:15:00
4:35 PM,82.4,73.4,74,29.86,10.0,North,8.1,-,N/A,,Mostly Cloudy,350,2013-09-02 21:35:00
4:55 PM,82.4,73.4,74,29.86,10.0,North,8.1,-,N/A,,Scattered Clouds,350,2013-09-02 21:55:00
5:15 PM,82.4,73.4,74,29.87,10.0,North,5.8,-,N/A,,Scattered Clouds,360,2013-09-02 22:15:00
5:35 PM,82.4,71.6,70,29.87,10.0,North,9.2,-,N/A,,Scattered Clouds,350,2013-09-02 22:35:00
5:55 PM,84.2,71.6,66,29.88,10.0,NNW,6.9,-,N/A,,Clear,340,2013-09-02 22:55:00
6:15 PM,82.4,71.6,70,29.88,10.0,North,6.9,-,N/A,,Clear,350,2013-09-02 23:15:00
6:35 PM,82.4,71.6,70,29.88,10.0,North,3.5,-,N/A,,Clear,350,2013-09-02 23:35:00
6:55 PM,80.6,71.6,74,29.88,10.0,NNW,4.6,-,N/A,,Clear,330,2013-09-02 23:55:00
7:15 PM,80.6,71.6,74,29.87,10.0,NNW,3.5,-,N/A,,Clear,340,2013-09-03 00:15:00
7:35 PM,78.8,71.6,78,29.87,10.0,NW,4.6,-,N/A,,Clear,320,2013-09-03 00:35:00
7:55 PM,77.0,71.6,83,29.88,10.0,NNW,4.6,-,N/A,,Clear,340,2013-09-03 00:55:00
8:15 PM,77.0,69.8,78,29.89,10.0,NW,5.8,-,N/A,,Clear,320,2013-09-03 01:15:00
8:35 PM,77.0,68.0,74,29.89,10.0,NNW,6.9,-,N/A,,Clear,340,2013-09-03 01:35:00
8:55 PM,75.2,68.0,78,29.90,10.0,NNW,8.1,-,N/A,,Clear,340,2013-09-03 01:55:00
9:15 PM,75.2,66.2,73,29.91,10.0,North,5.8,-,N/A,,Clear,350,2013-09-03 02:15:00
9:35 PM,73.4,66.2,78,29.92,10.0,Calm,Calm,-,N/A,,Clear,0,2013-09-03 02:35:00
9:55 PM,69.8,68.0,94,29.92,10.0,Calm,Calm,-,N/A,,Clear,0,2013-09-03 02:55:00
10:15 PM,73.4,66.2,78,29.93,10.0,NNW,3.5,-,N/A,,Clear,340,2013-09-03 03:15:00
10:35 PM,73.4,66.2,78,29.93,10.0,North,3.5,-,N/A,,Unknown,360,2013-09-03 03:35:00
10:55 PM,73.4,66.2,78,29.93,10.0,North,3.5,-,N/A,,Unknown,360,2013-09-03 03:55:00
11:15 PM,71.6,64.4,78,29.94,10.0,Calm,Calm,-,N/A,,Clear,0,2013-09-03 04:15:00
11:35 PM,68.0,66.2,94,29.94,10.0,Calm,Calm,-,N/A,,Clear,0,2013-09-03 04:35:00
11:55 PM,68.0,66.2,94,29.94,10.0,Calm,Calm,-,N/A,,Clear,0,2013-09-03 04:55:00